AEE285 LGAV-LGKR

Flight info

Callsign AEE285
Flight time 0h 50m
Altitude 32000
Route KOR UL53 PARNA
Aircraft A320/M-SDE3FGHIRWY/LB1

Departure

Time 2026-05-04 11:49
Airport Athens Eleftherios Venizelos International Airport (LGAV)

Arrival

Time 2026-05-04 12:39
Airport Corfu Ioannis Kapodistrias International Airport (LGKR)
Time Latitude Longitude Altitude Speed Heading
2026-05-04 10:56 37.93872 23.95081 304 ft 0 kts 307°
2026-05-04 11:36 37.93865 23.95093 301 ft 4 kts 307°
2026-05-04 11:37 37.93848 23.95121 301 ft 4 kts 307°
2026-05-04 11:37 37.93836 23.95142 300 ft 4 kts 296°
2026-05-04 11:37 37.93831 23.95172 300 ft 4 kts 250°
2026-05-04 11:37 37.93840 23.95189 300 ft 0 kts 217°
2026-05-04 11:43 37.93832 23.95182 300 ft 3 kts 217°
2026-05-04 11:43 37.93810 23.95161 300 ft 5 kts 217°
2026-05-04 11:43 37.93773 23.95125 302 ft 8 kts 217°
2026-05-04 11:43 37.93718 23.95114 303 ft 10 kts 145°
2026-05-04 11:44 37.93669 23.95196 299 ft 14 kts 127°
2026-05-04 11:44 37.93610 23.95239 300 ft 11 kts 186°
2026-05-04 11:44 37.93539 23.95177 297 ft 14 kts 216°
2026-05-04 11:44 37.93454 23.95096 299 ft 16 kts 217°
2026-05-04 11:45 37.93356 23.95003 299 ft 19 kts 217°
2026-05-04 11:45 37.93242 23.94895 299 ft 22 kts 217°
2026-05-04 11:45 37.93115 23.94774 301 ft 24 kts 217°
2026-05-04 11:45 37.92977 23.94642 302 ft 26 kts 217°
2026-05-04 11:46 37.92825 23.94500 302 ft 28 kts 216°
2026-05-04 11:46 37.92665 23.94347 303 ft 30 kts 217°
2026-05-04 11:46 37.92508 23.94199 304 ft 20 kts 217°
2026-05-04 11:46 37.92445 23.94156 303 ft 9 kts 182°
2026-05-04 11:47 37.92409 23.94204 304 ft 6 kts 99°
2026-05-04 11:47 37.92410 23.94223 304 ft 1 kts 86°
2026-05-04 11:47 37.92412 23.94255 306 ft 5 kts 86°
2026-05-04 11:47 37.92415 23.94310 308 ft 7 kts 86°
2026-05-04 11:48 37.92410 23.94371 309 ft 7 kts 96°
2026-05-04 11:48 37.92452 23.94421 309 ft 15 kts 38°
2026-05-04 11:48 37.92716 23.94670 302 ft 85 kts 38°
2026-05-04 11:48 37.93357 23.95280 292 ft 143 kts 37°
2026-05-04 11:49 37.94241 23.96123 603 ft 162 kts 36°
2026-05-04 11:49 37.95149 23.96974 1243 ft 164 kts 36°
2026-05-04 11:49 37.96124 23.97901 1574 ft 187 kts 37°
2026-05-04 11:49 37.97218 23.98958 1950 ft 209 kts 37°
2026-05-04 11:50 37.98447 24.00149 2324 ft 236 kts 37°
2026-05-04 11:50 37.99788 24.01437 3165 ft 245 kts 37°
2026-05-04 11:50 38.01137 24.02750 4104 ft 249 kts 37°
2026-05-04 11:50 38.02517 24.04099 5090 ft 252 kts 37°
2026-05-04 11:51 38.03957 24.05413 5899 ft 264 kts 27°
2026-05-04 11:51 38.05758 24.05978 6614 ft 273 kts 358°
2026-05-04 11:51 38.07605 24.05420 7479 ft 277 kts 332°
2026-05-04 11:51 38.09068 24.03840 8346 ft 280 kts 305°
2026-05-04 11:52 38.09871 24.01581 9203 ft 283 kts 286°
2026-05-04 11:52 38.10390 23.99155 10035 ft 289 kts 281°
2026-05-04 11:52 38.10475 23.96505 10324 ft 313 kts 268°
2026-05-04 11:52 38.10397 23.93650 10671 ft 332 kts 268°
2026-05-04 11:53 38.10300 23.90694 11344 ft 338 kts 267°
2026-05-04 11:53 38.10195 23.87686 12073 ft 343 kts 267°
2026-05-04 11:53 38.10094 23.84643 12795 ft 347 kts 268°
2026-05-04 11:53 38.09998 23.81563 13526 ft 351 kts 268°
2026-05-04 11:55 38.09312 23.59163 18106 ft 375 kts 268°
2026-05-04 11:55 38.09204 23.55845 18734 ft 378 kts 268°
2026-05-04 11:56 38.09095 23.52495 19359 ft 381 kts 268°
2026-05-04 11:56 38.08986 23.49117 19976 ft 385 kts 268°
2026-05-04 11:56 38.09085 23.45711 20561 ft 389 kts 280°
2026-05-04 11:56 38.09951 23.42452 21111 ft 393 kts 296°
2026-05-04 11:57 38.11194 23.39339 21664 ft 397 kts 297°
2026-05-04 11:57 38.12467 23.36218 22190 ft 400 kts 297°
2026-05-04 11:57 38.13761 23.33069 22725 ft 404 kts 297°
2026-05-04 11:57 38.15049 23.29935 23209 ft 407 kts 297°
2026-05-04 11:58 38.16360 23.26726 23715 ft 410 kts 297°
2026-05-04 11:58 38.17676 23.23493 24178 ft 414 kts 297°
2026-05-04 11:58 38.19018 23.20185 24651 ft 417 kts 297°
2026-05-04 11:58 38.20333 23.16934 25089 ft 420 kts 297°
2026-05-04 11:59 38.21687 23.13576 25585 ft 422 kts 297°
2026-05-04 11:59 38.23008 23.10296 26020 ft 424 kts 297°
2026-05-04 11:59 38.24358 23.06945 26435 ft 426 kts 297°
2026-05-04 11:59 38.25726 23.03540 26845 ft 429 kts 297°
2026-05-04 12:00 38.27073 23.00192 27236 ft 431 kts 297°
2026-05-04 12:00 38.28446 22.96777 27591 ft 435 kts 297°
2026-05-04 12:00 38.29827 22.93331 27950 ft 438 kts 297°
2026-05-04 12:00 38.31214 22.89863 28302 ft 441 kts 297°
2026-05-04 12:01 38.32613 22.86365 28641 ft 445 kts 297°
2026-05-04 12:01 38.34022 22.82845 28976 ft 448 kts 297°
2026-05-04 12:02 38.42597 22.61332 31060 ft 459 kts 296°
2026-05-04 12:03 38.44039 22.57690 31298 ft 461 kts 296°
2026-05-04 12:03 38.45480 22.54042 31557 ft 460 kts 296°
2026-05-04 12:03 38.46919 22.50404 31811 ft 458 kts 296°
2026-05-04 12:03 38.48354 22.46786 31973 ft 456 kts 297°
2026-05-04 12:04 38.51207 22.39576 32008 ft 454 kts 296°
2026-05-04 12:04 38.54043 22.32365 32009 ft 457 kts 296°
2026-05-04 12:05 38.56906 22.25053 32009 ft 462 kts 296°
2026-05-04 12:05 38.59775 22.17715 32008 ft 458 kts 296°
2026-05-04 12:06 38.62154 22.11641 32010 ft 461 kts 296°
2026-05-04 12:06 38.65022 22.04316 32009 ft 460 kts 296°
2026-05-04 12:07 38.68344 21.95777 32009 ft 460 kts 296°
2026-05-04 12:07 38.70729 21.89638 32009 ft 460 kts 296°
2026-05-04 12:08 38.73578 21.82282 32008 ft 462 kts 296°
2026-05-04 12:08 38.76425 21.74909 32009 ft 460 kts 296°
2026-05-04 12:09 38.79260 21.67549 32009 ft 460 kts 296°
2026-05-04 12:09 38.82058 21.60266 32008 ft 457 kts 296°
2026-05-04 12:10 38.84872 21.52930 32009 ft 458 kts 296°
2026-05-04 12:10 38.87671 21.45621 32009 ft 456 kts 296°
2026-05-04 12:11 38.90467 21.38317 32010 ft 456 kts 296°
2026-05-04 12:11 38.93254 21.31002 32009 ft 456 kts 296°
2026-05-04 12:12 38.96036 21.23662 32009 ft 456 kts 296°
2026-05-04 12:12 38.98805 21.16344 32009 ft 455 kts 296°
2026-05-04 12:14 39.09800 20.87178 32009 ft 453 kts 295°
2026-05-04 12:15 39.12553 20.79814 32009 ft 453 kts 295°
2026-05-04 12:15 39.15267 20.72536 32009 ft 453 kts 295°
2026-05-04 12:16 39.18002 20.65198 32009 ft 455 kts 295°
2026-05-04 12:16 39.20745 20.57853 32003 ft 454 kts 295°
2026-05-04 12:17 39.22097 20.54214 31610 ft 446 kts 295°
2026-05-04 12:17 39.23423 20.50624 31090 ft 439 kts 295°
2026-05-04 12:17 39.24716 20.47100 30161 ft 431 kts 294°
2026-05-04 12:17 39.25605 20.43459 29222 ft 423 kts 277°
2026-05-04 12:18 39.25654 20.39708 28281 ft 416 kts 266°
2026-05-04 12:18 39.25432 20.36001 27289 ft 412 kts 265°
2026-05-04 12:18 39.25192 20.32343 26349 ft 406 kts 265°
2026-05-04 12:18 39.24954 20.28744 25445 ft 401 kts 265°
2026-05-04 12:19 39.24718 20.25187 24567 ft 395 kts 265°
2026-05-04 12:19 39.24484 20.21672 23644 ft 392 kts 265°
2026-05-04 12:19 39.24250 20.18173 22538 ft 393 kts 265°
2026-05-04 12:19 39.24015 20.14659 21428 ft 393 kts 265°
2026-05-04 12:20 39.23781 20.11151 20355 ft 391 kts 265°
2026-05-04 12:20 39.23547 20.07664 19277 ft 389 kts 265°
2026-05-04 12:20 39.23315 20.04201 18195 ft 386 kts 265°
2026-05-04 12:20 39.23085 20.00775 17114 ft 381 kts 265°
2026-05-04 12:21 39.22858 19.97390 16037 ft 377 kts 265°
2026-05-04 12:21 39.22633 19.94044 14952 ft 371 kts 265°
2026-05-04 12:21 39.22412 19.90759 13875 ft 366 kts 265°
2026-05-04 12:21 39.22193 19.87512 12790 ft 360 kts 265°
2026-05-04 12:22 39.21978 19.84319 11710 ft 355 kts 265°
2026-05-04 12:22 39.21924 19.81169 10770 ft 347 kts 277°
2026-05-04 12:22 39.22547 19.78303 10544 ft 319 kts 294°
2026-05-04 12:22 39.23667 19.75965 10291 ft 298 kts 310°
2026-05-04 12:23 39.25183 19.74205 9755 ft 291 kts 327°
2026-05-04 12:23 39.26995 19.73110 9128 ft 288 kts 343°
2026-05-04 12:23 39.28957 19.72696 8482 ft 285 kts 359°
2026-05-04 12:23 39.30933 19.72801 7818 ft 283 kts
2026-05-04 12:24 39.32896 19.72928 7178 ft 281 kts
2026-05-04 12:24 39.34835 19.73049 6691 ft 274 kts
2026-05-04 12:24 39.36749 19.73165 6370 ft 276 kts
2026-05-04 12:24 39.38657 19.73279 6053 ft 274 kts
2026-05-04 12:25 39.40547 19.73156 5782 ft 269 kts 349°
2026-05-04 12:25 39.42390 19.72709 5725 ft 270 kts 349°
2026-05-04 12:25 39.44243 19.72274 5653 ft 271 kts 349°
2026-05-04 12:25 39.46098 19.71849 5560 ft 270 kts 349°
2026-05-04 12:26 39.47950 19.71428 5471 ft 270 kts 349°
2026-05-04 12:26 39.49796 19.71004 5381 ft 270 kts 349°
2026-05-04 12:26 39.51645 19.70576 5288 ft 269 kts 349°
2026-05-04 12:26 39.53491 19.70150 5198 ft 269 kts 349°
2026-05-04 12:27 39.55306 19.69734 5105 ft 269 kts 349°
2026-05-04 12:27 39.57146 19.69312 5015 ft 268 kts 349°
2026-05-04 12:27 39.58984 19.68886 4925 ft 268 kts 349°
2026-05-04 12:27 39.60817 19.68461 4835 ft 268 kts 349°
2026-05-04 12:28 39.62648 19.68033 4738 ft 267 kts 349°
2026-05-04 12:28 39.64480 19.67604 4650 ft 267 kts 349°
2026-05-04 12:28 39.66305 19.67177 4563 ft 267 kts 349°
2026-05-04 12:28 39.68133 19.66767 4467 ft 266 kts 353°
2026-05-04 12:29 39.69977 19.66815 4363 ft 266 kts
2026-05-04 12:29 39.71737 19.67534 4297 ft 266 kts 26°
2026-05-04 12:29 39.73367 19.68693 4210 ft 266 kts 28°
2026-05-04 12:29 39.74988 19.69858 4129 ft 266 kts 28°
2026-05-04 12:30 39.76604 19.71014 4038 ft 262 kts 28°
2026-05-04 12:30 39.78178 19.72139 3913 ft 254 kts 28°
2026-05-04 12:30 39.79701 19.73228 3786 ft 246 kts 28°
2026-05-04 12:30 39.81168 19.74278 3653 ft 236 kts 28°
2026-05-04 12:31 39.82579 19.75287 3579 ft 224 kts 28°
2026-05-04 12:31 39.83825 19.76398 3573 ft 212 kts 46°
2026-05-04 12:31 39.84626 19.77976 3584 ft 218 kts 68°
2026-05-04 12:31 39.84899 19.79860 3539 ft 207 kts 92°
2026-05-04 12:32 39.84616 19.81616 3471 ft 195 kts 114°
2026-05-04 12:32 39.83342 19.84636 3333 ft 190 kts 119°
2026-05-04 12:32 39.82724 19.86084 3260 ft 177 kts 119°
2026-05-04 12:33 39.82144 19.87441 3178 ft 166 kts 119°
2026-05-04 12:33 39.81602 19.88711 3095 ft 155 kts 119°
2026-05-04 12:33 39.81024 19.89836 3096 ft 146 kts 133°
2026-05-04 12:33 39.80240 19.90641 3088 ft 143 kts 152°
2026-05-04 12:34 39.79315 19.91082 3086 ft 142 kts 170°
2026-05-04 12:34 39.78295 19.91226 3103 ft 155 kts 175°
2026-05-04 12:34 39.77172 19.91368 3091 ft 166 kts 175°
2026-05-04 12:34 39.76016 19.91517 3084 ft 168 kts 175°
2026-05-04 12:35 39.74848 19.91634 3084 ft 169 kts 181°
2026-05-04 12:35 39.73692 19.91543 2796 ft 162 kts 184°
2026-05-04 12:35 39.72620 19.91452 2536 ft 148 kts 185°
2026-05-04 12:35 39.71620 19.91363 2295 ft 141 kts 185°
2026-05-04 12:36 39.70645 19.91282 2096 ft 139 kts 185°
2026-05-04 12:36 39.69683 19.91197 1895 ft 138 kts 185°
2026-05-04 12:36 39.68724 19.91112 1682 ft 138 kts 185°
2026-05-04 12:36 39.67771 19.91037 1489 ft 137 kts 185°
2026-05-04 12:37 39.66825 19.90910 1312 ft 136 kts 191°
2026-05-04 12:37 39.65906 19.90670 1146 ft 136 kts 192°
2026-05-04 12:37 39.64972 19.90447 949 ft 136 kts 189°
2026-05-04 12:37 39.64030 19.90331 714 ft 136 kts 180°
2026-05-04 12:38 39.63093 19.90459 467 ft 135 kts 171°
2026-05-04 12:38 39.62171 19.90707 299 ft 135 kts 169°
2026-05-04 12:38 39.61246 19.90939 118 ft 135 kts 169°
2026-05-04 12:38 39.60333 19.91176 21 ft 125 kts 168°
2026-05-04 12:39 39.59658 19.91351 19 ft 74 kts 169°
2026-05-04 12:39 39.59316 19.91441 16 ft 24 kts 167°
2026-05-04 12:39 39.59236 19.91467 18 ft 12 kts 165°
2026-05-04 12:39 39.59175 19.91509 16 ft 8 kts 187°
2026-05-04 12:40 39.59200 19.91470 16 ft 9 kts 348°
2026-05-04 12:40 39.59292 19.91448 17 ft 16 kts 349°
2026-05-04 12:40 39.59434 19.91411 15 ft 25 kts 348°
2026-05-04 12:40 39.59604 19.91369 18 ft 25 kts 350°
2026-05-04 12:41 39.59782 19.91330 23 ft 26 kts 348°
2026-05-04 12:41 39.59959 19.91275 24 ft 28 kts 346°
2026-05-04 12:41 39.60165 19.91218 25 ft 31 kts 349°
2026-05-04 12:41 39.60382 19.91163 21 ft 28 kts 349°
2026-05-04 12:42 39.60551 19.91176 18 ft 21 kts 24°
2026-05-04 12:42 39.60611 19.91228 22 ft 10 kts 22°
2026-05-04 12:42 39.60668 19.91225 20 ft 3 kts 349°
2026-05-04 12:42 39.60690 19.91245 20 ft 5 kts 67°
2026-05-04 12:43 39.60698 19.91303 22 ft 8 kts 79°
2026-05-04 12:43 39.60704 19.91342 21 ft 3 kts 78°
2026-05-04 12:43 39.60707 19.91357 21 ft 1 kts 77°
2026-05-04 12:43 39.60707 19.91358 21 ft 0 kts 77°